EW9081 Weather Reports


time (UTC)temp
F
wind
direction
speed
knots
gust
knots
rain 1hr
in
rain 24hr
in
rain mn
in
humidity
%
barometer
mb
20260509182438 65 162 0.9 2.6 0.00 0.00 0.00 67 1019.3
20260509181938 64 304 0.9 4.3 0.00 0.00 0.00 67 1019.4
20260509181438 64 331 0.9 4.3 0.00 0.00 0.00 71 1019.4
20260509180938 64 246 0.9 2.6 0.00 0.00 0.00 71 1019.4
20260509180436 64 167 0.9 2.6 0.00 0.00 0.00 71 1019.4
20260509175933 64 35 0.9 2.6 0.00 0.00 0.00 70 1019.5
20260509175434 64 12 0.9 2.6 0.00 0.00 0.00 70 1019.6
20260509174939 62 194 0.9 2.6 0.00 0.00 0.00 72 1019.7
20260509174934 63 38 0.9 2.6 0.00 0.00 0.00 72 1019.7
20260509174546 62 257 0.9 2.6 0.00 0.00 0.00 71 1019.8
20260509173431 62 305 1.7 3.5 0.00 0.00 0.00 73 1019.8
20260509172932 61 5 1.7 3.5 0.00 0.00 0.00 71 1019.9
20260509172432 61 312 0.9 2.6 0.00 0.00 0.00 74 1020.0
20260509171929 61 349 0.9 2.6 0.00 0.00 0.00 73 1020.0
20260509171430 61 351 0.9 2.6 0.00 0.00 0.00 75 1019.9
20260509170930 61 188 0.9 1.7 0.00 0.00 0.00 76 1020.0
20260509170428 60 112 0.9 2.6 0.00 0.00 0.00 76 1019.9
20260509165926 60 146 0.9 2.6 0.00 0.00 0.00 77 1019.9
20260509165426 60 178 0.0 1.7 0.00 0.00 0.00 77 1020.0
20260509164930 58 175 0.9 2.6 0.00 0.00 0.00 78 1020.2
20260509164925 59 177 0.9 2.6 0.00 0.00 0.00 80 1020.2
20260509163927 58 176 0.9 3.5 0.00 0.00 0.00 79 1020.2
20260509163427 58 169 0.0 3.5 0.00 0.00 0.00 78 1020.2
20260509162925 58 123 0.0 3.5 0.00 0.00 0.00 81 1020.3
20260509162425 58 123 0.0 3.5 0.00 0.00 0.00 80 1020.3
20260509161927 57 159 0.9 2.6 0.00 0.00 0.00 82 1020.4
20260509161427 57 21 0.9 2.6 0.00 0.00 0.00 83 1020.4
20260509160925 57 60 0.9 1.7 0.00 0.00 0.00 83 1020.5
20260509160426 56 53 0.9 1.7 0.00 0.00 0.00 86 1020.4
20260509155927 56 44 0.0 1.7 0.00 0.00 0.00 87 1020.6
20260509155431 54 177 0.9 3.5 0.00 0.00 0.00 88 1020.7
20260509155425 55 177 0.9 2.6 0.00 0.00 0.00 86 1020.7
20260509154926 55 177 0.9 2.6 0.00 0.00 0.00 88 1020.7
20260509153927 54 178 0.9 3.5 0.00 0.00 0.00 89 1020.6
20260509153425 53 173 0.0 2.6 0.00 0.00 0.00 89 1020.8
20260509152931 52 162 0.0 1.7 0.00 0.00 0.00 91 1020.7
20260509152927 53 173 0.0 2.6 0.00 0.00 0.00 90 1020.7
20260509151925 51 162 0.0 1.7 0.00 0.00 0.00 91 1020.8
20260509151427 51 162 0.0 1.7 0.00 0.00 0.00 92 1020.8
20260509150926 51 162 0.0 1.7 0.00 0.00 0.00 92 1020.8
20260509150433 49 162 0.0 0.9 0.00 0.00 0.00 94 1021.1
20260509150426 50 162 0.0 1.7 0.00 0.00 0.00 93 1020.9
20260509145927 50 162 0.0 1.7 0.00 0.00 0.00 93 1021.1
20260509144925 49 162 0.0 0.9 0.00 0.00 0.00 94 1021.1
20260509144426 48 162 0.0 1.7 0.00 0.00 0.00 94 1021.1
20260509143928 48 162 0.0 1.7 0.00 0.00 0.00 95 1021.1
20260509143924 48 162 0.0 1.7 0.00 0.00 0.00 94 1021.1
20260509142925 47 173 0.0 0.9 0.00 0.00 0.00 95 1021.1
20260509142423 47 171 0.0 0.0 0.00 0.00 0.00 95 1021.1
20260509141921 47 170 0.0 0.0 0.00 0.00 0.00 95 1020.9
20260509141422 47 170 0.0 0.0 0.00 0.00 0.00 95 1020.8
20260509140922 46 170 0.0 0.0 0.00 0.00 0.00 95 1020.8
20260509140422 46 170 0.0 0.0 0.00 0.00 0.00 95 1020.6
20260509135923 46 171 0.0 0.0 0.00 0.00 0.00 95 1020.7
20260509135427 45 170 0.0 1.7 0.00 0.00 0.00 95 1020.8
20260509135422 46 170 0.0 0.0 0.00 0.00 0.00 95 1020.7
20260509134421 45 170 0.0 1.7 0.00 0.00 0.00 95 1020.9
20260509133921 45 171 0.0 1.7 0.00 0.00 0.00 94 1020.8
20260509133420 45 171 0.0 1.7 0.00 0.00 0.00 95 1020.7
20260509132923 44 180 0.0 1.7 0.00 0.00 0.00 95 1020.6
20260509132919 44 179 0.0 1.7 0.00 0.00 0.00 95 1020.6
20260509131919 44 180 0.0 1.7 0.00 0.00 0.00 94 1020.6
20260509131420 44 180 0.0 1.7 0.00 0.00 0.00 94 1020.7
20260509130921 43 180 0.0 1.7 0.00 0.00 0.00 94 1020.7
20260509130423 43 180 0.0 0.0 0.00 0.00 0.00 93 1020.8
20260509130419 43 180 0.0 1.7 0.00 0.00 0.00 93 1020.7
20260509125419 43 180 0.0 1.7 0.00 0.00 0.00 93 1020.8
20260509124919 43 180 0.0 1.7 0.00 0.00 0.00 93 1020.8
20260509124417 43 180 0.0 0.0 0.00 0.00 0.00 92 1020.8
20260509123921 44 180 0.0 1.7 0.00 0.00 0.00 92 1020.9
20260509123917 44 180 0.0 0.0 0.00 0.00 0.00 92 1020.8
20260509122921 44 180 0.0 1.7 0.00 0.00 0.00 93 1020.9
20260509122915 44 180 0.0 1.7 0.00 0.00 0.00 93 1020.9
20260509121915 44 180 0.9 1.7 0.00 0.00 0.00 94 1020.9
20260509121415 44 173 0.0 1.7 0.00 0.00 0.00 94 1020.9
20260509120916 44 172 0.9 1.7 0.00 0.00 0.00 94 1021.1
20260509120416 44 171 0.0 1.7 0.00 0.00 0.00 93 1021.1
20260509115915 44 171 0.0 0.0 0.00 0.00 0.00 93 1021.1
20260509115413 44 171 0.0 0.0 0.00 0.00 0.00 94 1021.3
20260509114913 44 171 0.0 0.9 0.00 0.00 0.00 92 1021.2
20260509114413 45 171 0.0 0.9 0.00 0.00 0.00 92 1021.1
20260509113919 45 171 0.0 1.7 0.00 0.00 0.00 93 1021.2
20260509113913 45 171 0.0 1.7 0.00 0.00 0.00 92 1021.2
20260509112912 45 171 0.0 1.7 0.00 0.00 0.00 94 1021.2
20260509112413 45 200 0.0 1.7 0.00 0.00 0.00 94 1021.2
20260509111918 45 188 0.0 1.7 0.00 0.00 0.00 94 1021.3
20260509111914 45 186 0.0 1.7 0.00 0.00 0.00 94 1021.3
20260509111526 45 188 0.0 1.7 0.00 0.00 0.00 94 1021.2
20260509110412 45 188 0.0 1.7 0.00 0.00 0.00 94 1021.3
20260509105911 45 191 0.0 1.7 0.00 0.00 0.00 94 1021.3
20260509105411 44 191 0.0 1.7 0.00 0.00 0.00 92 1021.3
20260509104911 44 191 0.0 1.7 0.00 0.00 0.00 92 1021.4
20260509104411 45 190 0.0 1.7 0.00 0.00 0.00 92 1021.4
20260509103911 45 191 0.0 1.7 0.00 0.00 0.00 92 1021.5
20260509103418 46 191 0.0 0.0 0.00 0.00 0.00 92 1021.7
20260509103410 45 190 0.0 0.9 0.00 0.00 0.00 92 1021.5
20260509102910 45 191 0.0 0.9 0.00 0.00 0.00 93 1021.6
20260509102411 45 191 0.0 0.9 0.00 0.00 0.00 92 1021.6
20260509101414 46 191 0.0 0.0 0.00 0.00 0.00 93 1021.8
20260509101408 46 191 0.0 0.0 0.00 0.00 0.00 92 1021.7
20260509100909 46 191 0.0 0.0 0.00 0.00 0.00 93 1021.7
20260509095908 46 191 0.0 0.0 0.00 0.00 0.00 93 1021.7
20260509095408 46 191 0.0 0.0 0.00 0.00 0.00 93 1021.8
20260509094909 46 191 0.0 0.0 0.00 0.00 0.00 93 1021.7
20260509094409 45 191 0.0 0.0 0.00 0.00 0.00 92 1021.8
20260509093909 46 191 0.0 1.7 0.00 0.00 0.00 91 1021.8
20260509093409 46 191 0.0 1.7 0.00 0.00 0.00 92 1021.8
20260509092909 46 191 0.0 1.7 0.00 0.00 0.00 91 1021.9
20260509092406 46 191 0.0 1.7 0.00 0.00 0.00 91 1021.9
20260509091907 46 191 0.0 0.9 0.00 0.00 0.00 90 1021.8
20260509091406 47 191 0.0 1.7 0.00 0.00 0.00 90 1021.9
20260509090911 47 191 0.0 1.7 0.00 0.00 0.00 91 1022.0
20260509090907 47 191 0.0 1.7 0.00 0.00 0.00 90 1022.0
20260509085907 47 190 0.0 1.7 0.00 0.00 0.00 91 1022.0
20260509085407 47 190 0.0 1.7 0.00 0.00 0.00 90 1022.0
20260509084912 48 193 0.0 1.7 0.00 0.00 0.00 90 1022.0
20260509084907 47 192 0.0 1.7 0.00 0.00 0.00 89 1022.0
20260509083912 48 192 0.0 1.7 0.00 0.00 0.00 90 1022.0
20260509083906 48 192 0.0 0.9 0.00 0.00 0.00 90 1022.0
20260509082907 48 192 0.0 1.7 0.00 0.00 0.00 91 1022.1
20260509082408 49 192 0.9 1.7 0.00 0.00 0.00 90 1022.1
20260509081904 49 192 0.9 1.7 0.00 0.00 0.00 91 1022.1
20260509081406 49 195 0.0 1.7 0.00 0.00 0.00 90 1022.2
20260509080903 49 275 0.0 0.9 0.00 0.00 0.00 90 1022.1
20260509080402 49 296 0.0 0.0 0.00 0.00 0.00 90 1022.2
20260509075908 49 296 0.0 0.0 0.00 0.00 0.00 89 1022.1
20260509075902 49 296 0.0 0.0 0.00 0.00 0.00 88 1022.2
20260509074903 49 296 0.0 0.0 0.00 0.00 0.00 90 1022.2
20260509074403 49 296 0.0 1.7 0.00 0.00 0.00 89 1022.2
20260509073900 49 296 0.0 1.7 0.00 0.00 0.00 89 1022.2
20260509073400 49 295 0.0 0.0 0.00 0.00 0.00 89 1022.2
20260509072902 50 296 0.0 1.7 0.00 0.00 0.00 88 1022.2
20260509072401 50 295 0.0 1.7 0.00 0.00 0.00 88 1022.2
20260509071900 50 298 0.0 1.7 0.00 0.00 0.00 89 1022.3
20260509071401 50 262 0.0 1.7 0.00 0.00 0.00 88 1022.3
20260509070906 50 304 0.0 2.6 0.00 0.00 0.00 88 1022.3
20260509070901 50 304 0.0 2.6 0.00 0.00 0.00 88 1022.3
20260509065900 50 252 0.0 2.6 0.00 0.00 0.00 88 1022.2
20260509065401 51 248 0.0 2.6 0.00 0.00 0.00 87 1022.2
20260509064901 51 296 0.0 2.6 0.00 0.00 0.00 87 1022.2
20260509064400 51 269 0.9 4.3 0.00 0.00 0.00 87 1022.2
20260509063859 51 252 0.9 4.3 0.00 0.00 0.00 87 1022.2
20260509063359 51 218 0.9 4.3 0.00 0.00 0.00 87 1022.2
20260509062859 51 221 0.0 4.3 0.00 0.00 0.00 87 1022.2
20260509062359 51 222 0.9 3.5 0.00 0.00 0.00 87 1022.2
20260509061904 51 260 0.9 2.6 0.00 0.00 0.00 86 1022.2
20260509061859 51 201 0.9 3.5 0.00 0.00 0.00 87 1022.2
20260509060859 51 261 0.9 4.3 0.00 0.00 0.00 86 1022.2
20260509060359 52 252 0.0 4.3 0.00 0.00 0.00 86 1022.2
20260509055859 52 236 1.7 4.3 0.00 0.00 0.00 86 1022.2
20260509055404 52 219 0.0 2.6 0.00 0.00 0.00 85 1022.2
20260509055400 52 208 1.7 4.3 0.00 0.00 0.00 86 1022.3
20260509054857 52 200 0.9 2.6 0.00 0.00 0.00 86 1022.2
20260509053857 52 248 0.0 2.6 0.00 0.00 0.00 85 1022.2
20260509053358 52 242 0.9 2.6 0.00 0.00 0.00 85 1022.2
20260509052857 52 247 0.9 1.7 0.00 0.00 0.00 84 1022.3
20260509052357 53 251 0.9 6.1 0.00 0.00 0.00 84 1022.2
20260509051902 53 251 0.9 3.5 0.00 0.00 0.00 83 1022.2
20260509051858 53 229 0.9 6.1 0.00 0.00 0.00 84 1022.1
20260509051510 53 221 1.7 4.3 0.00 0.00 0.00 83 1022.2
20260509050357 53 263 1.7 4.3 0.00 0.00 0.00 83 1022.1
20260509045857 53 225 1.7 4.3 0.00 0.00 0.00 83 1021.9
20260509045357 53 258 0.9 3.5 0.00 0.00 0.00 83 1021.9
20260509044903 54 251 0.9 3.5 0.00 0.00 0.00 82 1022.0
20260509044858 53 259 0.9 3.5 0.00 0.00 0.00 82 1022.0
20260509043855 54 254 0.9 4.3 0.00 0.00 0.00 82 1021.9
20260509043355 54 234 0.9 4.3 0.00 0.00 0.00 81 1021.9
20260509042855 54 250 0.9 2.6 0.00 0.00 0.00 81 1021.8
20260509042355 54 238 0.9 2.6 0.00 0.00 0.00 81 1021.8
20260509041854 55 259 0.9 2.6 0.00 0.00 0.00 80 1021.8
20260509041353 55 269 0.9 3.5 0.00 0.00 0.00 79 1021.7
20260509040852 55 257 0.9 3.5 0.00 0.00 0.00 79 1021.7
20260509040354 56 254 0.9 3.5 0.00 0.00 0.00 78 1021.6
20260509035853 56 257 0.9 4.3 0.00 0.00 0.00 77 1021.7
20260509035353 56 223 0.9 4.3 0.00 0.00 0.00 77 1021.6
20260509034854 56 258 0.9 5.2 0.00 0.00 0.00 77 1021.5
20260509034352 57 253 0.9 5.2 0.00 0.00 0.00 76 1021.4
20260509033858 58 263 0.9 5.2 0.00 0.00 0.00 74 1021.4
20260509033854 57 243 0.9 3.5 0.00 0.00 0.00 75 1021.4
20260509033352 57 259 0.9 3.5 0.00 0.00 0.00 75 1021.4
20260509032350 58 217 0.9 5.2 0.00 0.00 0.00 73 1021.3
20260509031851 59 266 0.9 3.5 0.00 0.00 0.00 73 1021.4
20260509031352 59 284 0.9 3.5 0.00 0.00 0.00 71 1021.3
20260509031348 59 299 1.7 3.5 0.00 0.00 0.00 72 1021.4
20260509030348 60 271 0.9 4.3 0.00 0.00 0.00 71 1021.3
20260509025849 60 269 0.9 4.3 0.00 0.00 0.00 70 1021.2
20260509025347 60 239 0.9 4.3 0.00 0.00 0.00 69 1021.3
20260509024846 61 247 0.9 4.3 0.00 0.00 0.00 68 1021.2
20260509024352 62 269 1.7 5.2 0.00 0.00 0.00 67 1021.1
20260509024347 61 276 1.7 5.2 0.00 0.00 0.00 68 1021.2
20260509023848 62 288 1.7 5.2 0.00 0.00 0.00 67 1021.1
20260509022846 62 269 0.9 3.5 0.00 0.00 0.00 67 1021.0
20260509022348 62 259 0.9 3.5 0.00 0.00 0.00 67 1021.0
20260509021844 62 271 0.9 3.5 0.00 0.00 0.00 66 1021.1
20260509021355 65 245 1.7 6.1 0.00 0.00 0.00 64 1020.9
20260509021345 63 240 0.9 7.0 0.00 0.00 0.00 65 1021.0
20260509020846 64 271 1.7 7.0 0.00 0.00 0.00 65 1021.0
20260509020345 64 173 1.7 7.0 0.00 0.00 0.00 63 1021.0
20260509015845 64 256 1.7 7.0 0.00 0.00 0.00 63 1021.0
20260509015346 65 304 1.7 6.1 0.00 0.00 0.00 63 1020.9
20260509014350 64 267 1.7 8.7 0.00 0.00 0.00 63 1020.9
20260509014344 64 242 1.7 8.7 0.00 0.00 0.00 63 1020.9
20260509013342 65 218 1.7 8.7 0.00 0.00 0.00 62 1020.9
20260509012844 65 238 1.7 8.7 0.00 0.00 0.00 62 1021.0
20260509012348 65 247 1.7 5.2 0.00 0.00 0.00 63 1021.0
20260509012343 65 259 1.7 5.2 0.00 0.00 0.00 62 1021.0
20260509011343 65 235 2.6 6.1 0.00 0.00 0.00 61 1021.0
20260509010842 65 238 2.6 6.1 0.00 0.00 0.00 60 1021.1
20260509010342 66 241 2.6 6.1 0.00 0.00 0.00 59 1021.2
20260509005843 66 300 1.7 6.1 0.00 0.00 0.00 59 1021.2
20260509005343 67 248 1.7 6.1 0.00 0.00 0.00 60 1021.2
20260509004844 66 223 2.6 7.8 0.00 0.00 0.00 60 1021.2
20260509004344 66 233 2.6 7.8 0.00 0.00 0.00 60 1021.2
20260509003842 67 265 2.6 7.8 0.00 0.00 0.00 60 1021.2
20260509003344 67 294 2.6 7.8 0.00 0.00 0.00 60 1021.2
20260509002844 67 307 2.6 7.0 0.00 0.00 0.00 60 1021.2
20260509002343 66 296 3.5 9.6 0.00 0.00 0.00 59 1021.2
20260509001842 67 299 3.5 9.6 0.00 0.00 0.00 59 1021.2
20260509001344 67 346 2.6 7.8 0.00 0.00 0.00 59 1021.1
20260509000841 67 242 2.6 6.1 0.00 0.00 0.00 59 1021.1
20260509000340 66 302 3.5 7.8 0.00 0.00 0.00 59 1021.1
20260508235840 67 303 3.5 7.8 0.00 0.00 0.00 59 1021.2
20260508235339 67 334 3.5 7.8 0.00 0.00 0.00 60 1021.2
20260508234838 67 294 2.6 7.8 0.00 0.00 0.00 58 1021.2
20260508234339 66 252 3.5 7.8 0.00 0.00 0.00 60 1021.2
20260508233839 66 301 3.5 8.7 0.00 0.00 0.00 58 1021.3
20260508233343 67 315 3.5 7.0 0.00 0.00 0.00 60 1021.3
20260508233338 67 302 3.5 8.7 0.00 0.00 0.00 59 1021.3
20260508232344 66 317 3.5 9.6 0.00 0.00 0.00 59 1021.3
20260508232340 66 306 3.5 7.0 0.00 0.00 0.00 60 1021.3
20260508231340 66 11 3.5 9.6 0.00 0.00 0.00 59 1021.2
20260508230838 67 213 2.6 8.7 0.00 0.00 0.00 59 1021.3
20260508230339 66 265 3.5 8.7 0.00 0.00 0.00 61 1021.4
20260508225838 66 9 3.5 8.7 0.00 0.00 0.00 60 1021.2
20260508225340 66 297 3.5 7.0 0.00 0.00 0.00 60 1021.4
20260508224836 65 298 4.3 7.8 0.00 0.00 0.00 61 1021.4
20260508224336 66 336 4.3 7.8 0.00 0.00 0.00 58 1021.3
20260508223841 66 322 2.6 7.0 0.00 0.00 0.00 59 1021.3
20260508223836 65 336 3.5 7.8 0.00 0.00 0.00 60 1021.4
20260508222834 66 304 2.6 7.0 0.00 0.00 0.00 61 1021.3
20260508222334 65 277 2.6 7.0 0.00 0.00 0.00 57 1021.3
20260508221834 65 332 2.6 7.0 0.00 0.00 0.00 59 1021.3
20260508221336 65 13 2.6 7.0 0.00 0.00 0.00 61 1021.4
20260508220841 65 295 2.6 6.1 0.00 0.00 0.00 58 1021.5
20260508220834 65 306 3.5 7.0 0.00 0.00 0.00 60 1021.4
20260508220334 65 334 3.5 6.1 0.00 0.00 0.00 60 1021.5
20260508215334 65 249 2.6 6.1 0.00 0.00 0.00 64 1021.6
20260508214839 65 261 2.6 7.8 0.00 0.00 0.00 60 1021.6
20260508214835 65 285 2.6 7.8 0.00 0.00 0.00 60 1021.5
20260508213832 65 292 3.5 8.7 0.00 0.00 0.00 57 1021.7
20260508213333 65 345 4.3 8.7 0.00 0.00 0.00 61 1021.6
20260508212832 64 286 3.5 8.7 0.00 0.00 0.00 61 1021.6
20260508212333 64 5 3.5 8.7 0.00 0.00 0.00 59 1021.7
20260508211832 64 344 2.6 7.8 0.00 0.00 0.00 59 1021.6
20260508211332 64 304 1.7 7.8 0.00 0.00 0.00 59 1021.6
20260508210832 64 215 1.7 5.2 0.00 0.00 0.00 59 1021.6
20260508210330 64 227 1.7 5.2 0.00 0.00 0.00 59 1021.7
20260508205830 64 165 1.7 7.8 0.00 0.00 0.00 61 1021.6
20260508205330 63 237 1.7 7.8 0.00 0.00 0.00 57 1021.6
20260508204834 63 246 1.7 7.0 0.00 0.00 0.00 60 1021.7
20260508204830 63 319 1.7 4.3 0.00 0.00 0.00 60 1021.6
20260508203832 63 355 1.7 7.0 0.00 0.00 0.00 62 1021.7
20260508203334 62 15 1.7 7.0 0.00 0.00 0.00 62 1021.8
20260508203330 62 290 1.7 7.0 0.00 0.00 0.00 62 1021.8
20260508202330 62 32 0.9 3.5 0.00 0.00 0.00 62 1021.8
20260508201834 62 77 1.7 5.2 0.00 0.00 0.00 62 1021.8
20260508201829 62 348 1.7 5.2 0.00 0.00 0.00 64 1021.8
20260508200829 62 250 1.7 5.2 0.00 0.00 0.00 64 1021.7
20260508200328 62 271 2.6 7.0 0.00 0.00 0.00 64 1021.8
20260508195828 61 17 3.5 9.6 0.00 0.00 0.00 64 1021.8
20260508195328 60 17 3.5 9.6 0.00 0.00 0.00 63 1021.9
20260508194828 60 327 1.7 7.0 0.00 0.00 0.00 67 1021.8
20260508194330 60 15 0.9 3.5 0.00 0.00 0.00 64 1021.9
20260508193828 60 319 2.6 7.8 0.00 0.00 0.00 62 1021.9
20260508193327 60 286 3.5 7.8 0.00 0.00 0.00 60 1022.0
20260508192828 60 266 3.5 7.0 0.00 0.00 0.00 63 1022.1
20260508192326 60 325 3.5 7.0 0.00 0.00 0.00 64 1022.1
20260508191828 59 298 2.6 6.1 0.00 0.00 0.00 64 1022.1
20260508191326 59 223 2.6 6.1 0.00 0.00 0.00 65 1022.1
20260508190827 59 243 2.6 9.6 0.00 0.00 0.00 65 1022.0
20260508190326 59 304 2.6 9.6 0.00 0.00 0.00 64 1022.0
20260508185826 59 21 3.5 9.6 0.00 0.00 0.00 64 1022.0
20260508185325 58 22 3.5 9.6 0.00 0.00 0.00 63 1021.9
20260508184824 58 355 2.6 7.8 0.00 0.00 0.00 62 1021.9
20260508184325 58 328 2.6 7.8 0.00 0.00 0.00 64 1021.9
20260508183830 59 249 2.6 7.8 0.00 0.00 0.00 63 1022.0
20260508183825 59 335 2.6 7.8 0.00 0.00 0.00 64 1021.9